When you browse on this site, cookies collect data to enhance your experience and personalize the content and advertising you see.
Visit our Privacy Policy to learn more. By continuing to use the site, you agree to this use of cookies and data.
  • In Spain
  • List of Countries
  • For 7 days
  • Water Temperature
  • Weather Map
  • Weather Widgets
  • user-avatar
    Login

    Hourly Weather Svobodnyy

    Today, 15 December, Sunday

    Time Temperature Precipitation Wind Pressure Humidity
    00:00 -1°C° 0 mm 5 mps 737 mmHg 94%
    01:00 -1°C° 0 mm 5 mps 737 mmHg 94%
    02:00 -1°C° 0 mm 5 mps 737 mmHg 95%
    03:00 -1°C° 0 mm 5 mps 737 mmHg 95%
    04:00 -1°C° 0 mm 5 mps 736 mmHg 95%
    05:00 -1°C° 0 mm 5 mps 736 mmHg 95%
    06:00 -1°C° 0 mm 6 mps 736 mmHg 95%
    07:00 -1°C° 0 mm 6 mps 736 mmHg 95%
    08:00 -1°C° 0 mm 6 mps 736 mmHg 96%
    09:00 -1°C° 0.1 mm 6 mps 736 mmHg 96%
    10:00 +1°C° 0.1 mm 6 mps 735 mmHg 95%
    11:00 0°C° 0.1 mm 7 mps 735 mmHg 95%
    12:00 0°C° 0.1 mm 7 mps 735 mmHg 95%
    13:00 0°C° 0.1 mm 7 mps 734 mmHg 95%
    14:00 0°C° 0.1 mm 7 mps 734 mmHg 95%
    15:00 0°C° 0.3 mm 7 mps 734 mmHg 95%
    16:00 +2°C° 0.3 mm 7 mps 734 mmHg 95%
    17:00 +2°C° 0.3 mm 7 mps 733 mmHg 94%
    18:00 +2°C° 1.5 mm 6 mps 734 mmHg 95%
    19:00 +2°C° 1.5 mm 5 mps 734 mmHg 96%
    20:00 +1°C° 1.5 mm 4 mps 734 mmHg 97%
    21:00 +1°C° 0.3 mm 4 mps 735 mmHg 95%
    22:00 0°C° 0.3 mm 4 mps 735 mmHg 94%
    23:00 +1°C° 0.3 mm 3 mps 735 mmHg 92%

    Tomorrow, 16 December, Monday

    Time Temperature Precipitation Wind Pressure Humidity
    00:00 0°C° 0 mm 3 mps 736 mmHg 91%
    01:00 -1°C° 0 mm 3 mps 736 mmHg 89%
    02:00 -1°C° 0 mm 3 mps 737 mmHg 88%
    03:00 -1°C° 0 mm 3 mps 737 mmHg 88%
    04:00 -2°C° 0 mm 4 mps 737 mmHg 88%
    05:00 -2°C° 0 mm 4 mps 737 mmHg 88%
    06:00 -2°C° 0 mm 4 mps 738 mmHg 90%
    07:00 -2°C° 0 mm 4 mps 738 mmHg 92%
    08:00 -2°C° 0 mm 4 mps 738 mmHg 93%
    09:00 -1°C° 0 mm 5 mps 738 mmHg 94%
    10:00 -1°C° 0 mm 5 mps 738 mmHg 95%
    11:00 -1°C° 0 mm 5 mps 737 mmHg 95%
    12:00 0°C° 0 mm 5 mps 737 mmHg 94%
    13:00 0°C° 0 mm 5 mps 737 mmHg 92%
    14:00 0°C° 0 mm 5 mps 737 mmHg 91%
    15:00 0°C° 0 mm 5 mps 737 mmHg 90%
    16:00 0°C° 0 mm 5 mps 738 mmHg 89%
    17:00 -1°C° 0 mm 6 mps 738 mmHg 88%
    18:00 -1°C° 0 mm 6 mps 738 mmHg 85%
    19:00 -1°C° 0 mm 6 mps 739 mmHg 83%
    20:00 -1°C° 0 mm 6 mps 739 mmHg 80%
    21:00 -1°C° 0 mm 6 mps 739 mmHg 82%
    22:00 -2°C° 0 mm 6 mps 740 mmHg 84%
    23:00 -3°C° 0 mm 6 mps 740 mmHg 86%

    Day after tomorrow, 17 December, Tuesday

    Time Temperature Precipitation Wind Pressure Humidity
    00:00 -2°C° 0 mm 5 mps 740 mmHg 88%
    01:00 -2°C° 0 mm 5 mps 741 mmHg 89%
    02:00 -2°C° 0 mm 5 mps 741 mmHg 91%
    03:00 -2°C° 0 mm 4 mps 741 mmHg 92%
    04:00 -3°C° 0 mm 4 mps 742 mmHg 93%
    05:00 -2°C° 0 mm 3 mps 742 mmHg 94%
    06:00 -2°C° 0 mm 3 mps 742 mmHg 93%
    07:00 -2°C° 0 mm 3 mps 742 mmHg 92%
    08:00 -2°C° 0 mm 3 mps 743 mmHg 92%
    09:00 -2°C° 0 mm 4 mps 742 mmHg 87%
    10:00 -1°C° 0 mm 4 mps 742 mmHg 83%
    11:00 0°C° 0 mm 4 mps 742 mmHg 78%
    12:00 0°C° 0 mm 5 mps 742 mmHg 79%
    13:00 0°C° 0 mm 5 mps 741 mmHg 79%
    14:00 0°C° 0 mm 5 mps 741 mmHg 79%
    15:00 0°C° 0 mm 5 mps 740 mmHg 81%
    16:00 -1°C° 0 mm 6 mps 740 mmHg 84%
    17:00 +1°C° 0 mm 6 mps 740 mmHg 86%
    18:00 -1°C° 0 mm 6 mps 740 mmHg 88%
    19:00 -1°C° 0 mm 6 mps 739 mmHg 90%
    20:00 -1°C° 0 mm 6 mps 739 mmHg 92%
    21:00 0°C° 0 mm 5 mps 739 mmHg 92%
    22:00 0°C° 0 mm 5 mps 739 mmHg 93%
    23:00 0°C° 0 mm 5 mps 739 mmHg 93%

    18 December, Wednesday

    Time Temperature Precipitation Wind Pressure Humidity
    00:00 0°C° 0 mm 5 mps 739 mmHg 94%
    01:00 0°C° 0 mm 4 mps 739 mmHg 94%
    02:00 -1°C° 0 mm 4 mps 740 mmHg 95%
    03:00 0°C° 0 mm 3 mps 740 mmHg 95%
    04:00 0°C° 0 mm 3 mps 740 mmHg 96%
    05:00 0°C° 0 mm 3 mps 740 mmHg 96%
    06:00 +1°C° 0 mm 2 mps 740 mmHg 96%
    07:00 +1°C° 0 mm 2 mps 740 mmHg 96%
    08:00 +1°C° 0 mm 2 mps 740 mmHg 96%
    09:00 +1°C° 0 mm 2 mps 740 mmHg 95%
    10:00 +2°C° 0 mm 2 mps 740 mmHg 95%
    11:00 +2°C° 0 mm 2 mps 740 mmHg 94%
    12:00 +2°C° 0 mm 2 mps 739 mmHg 94%
    13:00 +2°C° 0 mm 2 mps 739 mmHg 94%
    14:00 +1°C° 0 mm 3 mps 739 mmHg 94%
    15:00 0°C° 0 mm 3 mps 739 mmHg 95%
    16:00 0°C° 0 mm 3 mps 739 mmHg 95%
    17:00 0°C° 0 mm 3 mps 738 mmHg 95%
    18:00 0°C° 0 mm 3 mps 738 mmHg 95%
    19:00 0°C° 0 mm 3 mps 738 mmHg 94%
    20:00 -1°C° 0 mm 3 mps 738 mmHg 94%
    21:00 -1°C° 0 mm 3 mps 738 mmHg 94%
    22:00 -1°C° 0 mm 3 mps 738 mmHg 94%
    23:00 -1°C° 0 mm 3 mps 738 mmHg 94%

    19 December, Thursday

    Time Temperature Precipitation Wind Pressure Humidity
    00:00 -2°C° 0 mm 4 mps 737 mmHg 94%
    01:00 -2°C° 0 mm 4 mps 737 mmHg 94%
    02:00 -2°C° 0 mm 4 mps 737 mmHg 94%
    03:00 -2°C° 0 mm 4 mps 736 mmHg 95%
    04:00 -1°C° 0 mm 5 mps 736 mmHg 96%
    05:00 -1°C° 0 mm 5 mps 736 mmHg 96%
    06:00 -1°C° 0 mm 5 mps 736 mmHg 97%
    07:00 -1°C° 0 mm 6 mps 735 mmHg 97%
    08:00 -1°C° 0 mm 6 mps 735 mmHg 97%
    09:00 -1°C° 0 mm 6 mps 736 mmHg 97%
    10:00 +1°C° 0 mm 6 mps 736 mmHg 97%
    11:00 +1°C° 0 mm 6 mps 736 mmHg 96%
    12:00 +1°C° 0 mm 6 mps 736 mmHg 96%
    13:00 +1°C° 0 mm 5 mps 736 mmHg 96%
    14:00 0°C° 0 mm 5 mps 735 mmHg 96%
    15:00 0°C° 0 mm 5 mps 736 mmHg 94%
    16:00 0°C° 0 mm 4 mps 736 mmHg 93%
    17:00 0°C° 0 mm 4 mps 736 mmHg 91%
    18:00 +1°C° 0 mm 3 mps 737 mmHg 91%
    19:00 0°C° 0 mm 3 mps 737 mmHg 91%
    20:00 0°C° 0 mm 3 mps 737 mmHg 91%
    21:00 0°C° 0 mm 3 mps 737 mmHg 91%
    22:00 -1°C° 0 mm 3 mps 737 mmHg 91%
    23:00 -1°C° 0 mm 2 mps 737 mmHg 91%

    20 December, Friday

    Time Temperature Precipitation Wind Pressure Humidity
    00:00 -1°C° 0 mm 2 mps 737 mmHg 92%
    01:00 -2°C° 0 mm 2 mps 737 mmHg 92%
    02:00 -2°C° 0 mm 2 mps 738 mmHg 93%
    03:00 -2°C° 0 mm 2 mps 738 mmHg 93%
    04:00 -3°C° 0 mm 2 mps 738 mmHg 94%
    05:00 -4°C° 0 mm 3 mps 738 mmHg 94%
    06:00 -4°C° 0 mm 3 mps 738 mmHg 91%
    07:00 -4°C° 0 mm 3 mps 739 mmHg 87%
    08:00 -4°C° 0 mm 3 mps 739 mmHg 84%
    09:00 -2°C° 0 mm 3 mps 739 mmHg 81%
    10:00 -2°C° 0 mm 3 mps 739 mmHg 79%
    11:00 -2°C° 0 mm 2 mps 740 mmHg 76%
    12:00 -2°C° 0 mm 2 mps 739 mmHg 76%
    13:00 -2°C° 0 mm 2 mps 739 mmHg 75%
    14:00 -2°C° 0 mm 2 mps 739 mmHg 75%
    15:00 0°C° 0 mm 1 mps 739 mmHg 78%
    16:00 -1°C° 0 mm 1 mps 740 mmHg 80%
    17:00 -1°C° 0 mm 1 mps 740 mmHg 83%
    18:00 -1°C° 0 mm 1 mps 740 mmHg 84%
    19:00 -1°C° 0 mm 1 mps 740 mmHg 84%
    20:00 -1°C° 0 mm 1 mps 740 mmHg 85%
    21:00 -2°C° 0 mm 1 mps 740 mmHg 86%
    22:00 -2°C° 0 mm 1 mps 740 mmHg 87%
    23:00 -2°C° 0 mm 1 mps 740 mmHg 87%
    Show more